カタログに戻る

THORAD AGENA D DEB

運用中PO
NORAD 42527·DEBRIS·🇺🇸 United States

打ち上げ Apr 8, 1970 から Vandenberg Space Force Base

Loading…

次のパス (今後24時間)

TLE

経年Source: Space-Track

元期: Sep 7, 2026, 16:47 UTC

1 42527U 70025SH  26250.69985692  .00004792  00000-0  14083-2 0  9993
2 42527  99.1345 214.9323 0024956  70.3820 290.0059 14.44066782663319

AllMySatでTHORAD AGENA D DEBをリアルタイム追跡

Download on the App Store